User: anonymous   Login
Location: Caltech
(34.1382°N, 118.1253°W)
Time: 00:23:16
(UTC-07:00)
Language:

Cosmos 1937 Rocket - Orbit

View from above orbital plane
View from above orbital plane
View from above satellite
View from above satellite

Ground track
Ground track

The orbit data is extracted from the following two-line orbital elements,

1 19039U 88029B   17083.60732326 +.00000144 +00000-0 +55841-4 0  9993
2 19039 074.0461 095.1794 0025000 288.1917 210.7988 14.38353125518402
Epoch (UTC): 24 March 2017 14:34:32
Eccentricity: 0.0025000
inclination: 74.0461°
perigee height: 746 km
apogee height: 782 km
right ascension of ascending node: 95.1794°
argument of perigee: 288.1917°
revolutions per day: 14.38353125
mean anomaly at epoch: 210.7988°
orbit number at epoch: 51840

The dashed part of the orbit path shows where the satellite is in the earth's shadow,  

DLR